Waarnemingen

Advertentie
Mijn weer
Metz-Nancy-Lorraine, Frankrijk (7093): temperatuur & dauwpunt: 16.11.2017 08:00:00 - 22.11.2017 08:00:00 (CET)Metz-Nancy-Lorraine, Frankrijk (7093): windsnelheid & windstoten: 16.11.2017 08:00:00 - 22.11.2017 08:00:00 (CET)Metz-Nancy-Lorraine, Frankrijk (7093): windrichting: 16.11.2017 08:00:00 - 22.11.2017 08:00:00 (CET)Metz-Nancy-Lorraine, Frankrijk (7093): luchtdruk: 16.11.2017 08:00:00 - 22.11.2017 08:00:00 (CET)Metz-Nancy-Lorraine, Frankrijk (7093): zicht: 16.11.2017 08:00:00 - 22.11.2017 08:00:00 (CET)Metz-Nancy-Lorraine, Frankrijk (7093): Zonneschijnduur: 16.11.2017 08:00:00 - 22.11.2017 08:00:00 (CET)Metz-Nancy-Lorraine, Frankrijk (7093): neerslag: 16.11.2017 08:00:00 - 22.11.2017 08:00:00 (CET)
Datum & Tijd tt [°C] td [°C] ff [km/u] ff [kn] fx [km/u] fx [kn] dd ppp [hPa] vv [km] sd [min] rr [mm]
22.11.2017 08:00:00 3,1 2,5 16 9 22 12 Z 1014,5 5 0 0,0
22.11.2017 07:00:00 3,3 2,7 19 11 26 14 ZZO 1014,4 6 0 0,0
22.11.2017 06:00:00 3,9 3,2 21 11 25 14 ZZO 1014,5 5 0 0,0
22.11.2017 05:00:00 5,7 5,0 21 11 27 15 Z 1014,7 7 0 0,0
22.11.2017 04:00:00 6,1 5,4 21 11 27 14 ZZW 1015,4 9 0 0,0
22.11.2017 03:00:00 6,6 5,5 18 10 28 15 Z 1015,6 10 0 0,0
22.11.2017 02:00:00 6,6 5,4 19 10 27 14 ZZW 1015,6 17 0 0,0
22.11.2017 01:00:00 6,6 5,4 18 10 28 15 ZZW 1016,2 10 0 0,0
22.11.2017 00:00:00 6,0 5,3 16 9 27 14 Z 1016,4 10 0 0,0
21.11.2017 23:00:00 6,5 5,9 18 10 27 15 Z 1016,4 6 0 0,0
21.11.2017 22:00:00 6,8 6,1 16 9 21 11 ZZW 1016,6 8 0 0,0
21.11.2017 21:00:00 7,2 6,3 15 8 25 14 ZZW 1016,6 10 0 0,0
21.11.2017 20:00:00 7,3 6,2 18 10 34 18 ZW 1016,9 10 0 0,0
21.11.2017 19:00:00 7,2 5,7 18 10 26 14 WZW 1017,0 10 0 0,0
21.11.2017 18:00:00 7,3 5,6 18 10 31 17 WZW 1017,5 10 0 0,0
21.11.2017 17:00:00 7,2 5,7 21 11 34 18 WZW 1017,5 10 0 0,0
21.11.2017 16:00:00 7,2 5,7 22 12 32 17 WZW 1017,6 10 0 0,0
21.11.2017 15:00:00 7,2 5,5 21 11 35 19 ZW 1017,9 10 0 0,0
21.11.2017 14:00:00 7,5 5,6 24 13 33 18 ZW 1018,0 10 0 0,0
21.11.2017 13:00:00 7,6 6,1 21 11 34 19 ZW 1018,2 10 0 0,0
21.11.2017 12:00:00 7,3 5,9 28 15 42 23 ZW 1018,9 10 2 0,0
21.11.2017 11:00:00 7,2 6,1 31 17 49 26 WZW 1019,2 10 0 0,0
21.11.2017 10:00:00 7,0 6,3 31 17 41 22 ZW 1018,9 13 0 0,0
21.11.2017 09:00:00 6,8 6,1 28 15 41 22 ZW 1019,0 10 0 0,0
21.11.2017 08:00:00 6,6 6,0 29 16 41 22 ZW 1018,8 8 0 0,0
21.11.2017 07:00:00 6,9 6,5 27 14 37 20 ZZW 1018,3 6 0 0,0
21.11.2017 06:00:00 7,1 6,4 24 13 36 20 ZW 1018,4 10 0 0,0
21.11.2017 05:00:00 7,0 6,4 24 13 41 22 ZW 1018,2 10 0 0,0
21.11.2017 04:00:00 6,9 6,3 21 11 34 18 ZZW 1018,4 10 0 0,0
21.11.2017 03:00:00 6,7 6,3 22 12 31 17 ZZW 1018,7 10 0 0,0
21.11.2017 02:00:00 6,6 6,2 22 12 31 17 ZZW 1018,8 8 0 0,0
21.11.2017 01:00:00 6,5 6,2 21 11 35 19 ZZW 1018,9 5 0 0,2
21.11.2017 00:00:00 6,2 5,9 24 13 37 20 ZZW 1018,9 10 0 0,4
20.11.2017 23:00:00 5,8 5,5 24 13 42 23 ZW 1019,2 3,4 0 1,6
20.11.2017 22:00:00 5,1 4,8 29 16 40 22 ZZW 1018,9 4,9 0 0,6
20.11.2017 21:00:00 5,2 4,6 24 13 39 21 ZZW 1019,8 3,9 0 0,4
20.11.2017 20:00:00 5,6 4,6 27 15 38 21 ZZW 1019,3 15 0 0,0
20.11.2017 19:00:00 5,5 4,5 28 15 39 21 ZZW 1019,5 10 0 0,0
20.11.2017 18:00:00 5,3 4,4 21 11 30 16 ZW 1020,1 10 0 0,0
20.11.2017 17:00:00 4,6 3,9 21 11 35 19 ZZW 1020,4 10 0 0,0
20.11.2017 16:00:00 4,8 3,3 28 15 42 23 ZZW 1020,5 10 0 0,0
20.11.2017 15:00:00 4,8 2,8 22 12 31 17 Z 1021,0 10 0 0,0
20.11.2017 14:00:00 4,4 2,3 18 10 29 15 Z 1022,1 10 0 0,0
20.11.2017 13:00:00 3,7 1,9 18 10 28 15 Z 1023,1 10 0 0,0
20.11.2017 12:00:00 2,4 1,4 21 11 28 15 Z 1023,6 10 0 0,0
20.11.2017 11:00:00 1,6 0,6 16 9 32 18 Z 1025,1 8 0 0,0
20.11.2017 10:00:00 1,0 0,3 18 10 25 13 Z 1025,2 10 0 0,0
20.11.2017 09:00:00 0,5 -0,2 15 8 24 13 Z 1025,1 10 0 0,0
20.11.2017 08:00:00 0,1 -0,6 16 9 22 12 Z 1024,8 10 0 0,0
20.11.2017 07:00:00 0,2 -0,5 16 9 22 12 Z 1024,8 10 0 0,0
20.11.2017 06:00:00 -0,2 -0,6 16 9 21 11 Z 1025,0 9 0 0,0
20.11.2017 05:00:00 -0,9 -1,5 11 6 19 10 ZZW 1025,2 10 0 0,0
20.11.2017 04:00:00 -0,6 -1,0 16 9 22 12 ZZW 1025,3 9 0 0,0
20.11.2017 03:00:00 -0,3 -0,9 15 8 20 11 ZZW 1025,8 10 0 0,0
20.11.2017 02:00:00 -0,8 -1,4 15 8 18 10 Z 1026,1 10 0 0,0
20.11.2017 01:00:00 -1,0 -1,6 11 6 15 8 Z 1026,3 10 0 0,0
20.11.2017 00:00:00 -0,5 -1,5 8 4 14 8 ZZW 1026,4 10 0 0,0
19.11.2017 23:00:00 0,4 -0,7 8 4 15 8 ZW 1026,1 10 0 0,0
19.11.2017 22:00:00 -0,1 -1,2 13 7 17 9 ZZW 1026,2 10 0 0,0
19.11.2017 21:00:00 1,7 -0,2 13 7 17 9 WZW 1025,8 10 0 0,0
19.11.2017 20:00:00 1,4 -0,4 13 7 21 11 WZW 1025,4 10 0 0,0
19.11.2017 19:00:00 1,6 -0,7 16 9 23 12 ZW 1024,6 39 0 0,0
19.11.2017 18:00:00 2,6 0,0 15 8 18 10 ZW 1023,9 10 0 0,0
19.11.2017 17:00:00 4,7 0,5 9 5 16 9 W 1023,4 10 5 0,0
19.11.2017 16:00:00 6,7 1,4 9 5 22 12 W 1022,6 10 55 0,0
19.11.2017 15:00:00 7,2 1,7 16 9 25 13 W 1022,2 10 37 0,0
19.11.2017 14:00:00 6,3 1,2 16 9 30 16 W 1022,3 10 26 0,0
19.11.2017 13:00:00 6,6 1,5 18 10 29 16 W 1022,1 10 45 0,0
19.11.2017 12:00:00 6,8 1,5 22 12 33 18 WNW 1022,0 10 57 0,0
19.11.2017 11:00:00 6,5 2,6 18 10 29 16 WNW 1021,8 10 60 0,0
19.11.2017 10:00:00 6,0 3,3 15 8 25 13 WNW 1021,4 10 60 0,0
19.11.2017 09:00:00 4,7 3,2 8 4 22 12 W 1020,8 10 42 0,0
19.11.2017 08:00:00 4,5 3,0 15 8 25 13 W 1020,3 10 0 0,0
19.11.2017 07:00:00 4,6 4,0 13 7 27 15 W 1019,3 8 0 0,0
19.11.2017 06:00:00 5,6 4,7 21 11 29 16 WNW 1018,8 10 0 0,0
19.11.2017 05:00:00 5,3 4,9 21 11 36 19 W 1018,3 10 0 0,0
19.11.2017 04:00:00 5,2 4,5 28 15 40 22 WZW 1018,2 10 0 0,0
19.11.2017 03:00:00 5,0 4,3 29 16 42 23 WZW 1018,1 10 0 0,2
19.11.2017 02:00:00 4,9 4,3 28 15 43 23 ZW 1018,7 10 0 0,2
19.11.2017 01:00:00 4,6 4,2 24 13 34 18 ZW 1019,7 6 0 1,6
19.11.2017 00:00:00 4,4 3,8 22 12 38 21 ZW 1020,5 6 0 0,4
18.11.2017 23:00:00 4,3 3,3 26 14 33 18 ZW 1020,9 9 0 0,0
18.11.2017 22:00:00 4,3 2,8 22 12 33 18 ZW 1021,7 10 0 0,0
18.11.2017 21:00:00 4,4 2,4 21 11 31 17 ZW 1022,3 10 0 0,0
18.11.2017 20:00:00 4,3 2,0 21 11 29 15 ZW 1022,7 10 0 0,0
18.11.2017 19:00:00 3,9 1,8 22 12 28 15 ZW 1022,9 10 0 0,0
18.11.2017 18:00:00 4,5 1,7 17 9 24 13 WZW 1023,7 19 0 0,0
18.11.2017 17:00:00 5,0 1,5 16 9 28 15 WZW 1023,4 10 0 0,0
18.11.2017 16:00:00 5,3 1,6 18 10 28 15 WZW 1023,6 10 0 0,0
18.11.2017 15:00:00 5,4 2,0 16 9 29 16 ZW 1023,9 10 0 0,0
18.11.2017 14:00:00 5,8 1,9 21 11 28 15 ZW 1024,0 10 47 0,0
18.11.2017 13:00:00 5,4 2,6 16 9 24 13 WZW 1024,7 10 11 0,0
18.11.2017 12:00:00 3,9 1,9 11 6 20 11 WZW 1025,9 10 16 0,0
18.11.2017 11:00:00 2,2 2,1 9 5 17 9 W 1026,5 8 0 0,0
18.11.2017 10:00:00 1,8 1,7 11 6 20 11 WZW 1026,3 0,6 0 0,0
18.11.2017 09:00:00 2,0 1,9 14 7 18 10 W 1026,1 0,4 0 0,0
18.11.2017 08:00:00 2,3 2,2 9 5 18 10 W 1025,6 2,1 0 0,0
18.11.2017 07:00:00 2,6 2,3 11 6 17 9 ZW 1025,5 0,8 0 0,0
18.11.2017 06:00:00 3,3 2,7 6 3 13 7 W 1025,5 5 0 0,0
18.11.2017 05:00:00 3,7 3,1 5 3 14 8 W 1025,4 6 0 0,0
18.11.2017 04:00:00 4,1 3,7 5 3 9 5 - 1025,6 3,7 0 0,0
18.11.2017 03:00:00 5,1 4,8 4 2 6 3 WNW 1026,0 3,7 0 0,0
18.11.2017 02:00:00 5,1 4,8 4 2 14 8 - 1026,0 7 0 0,0
18.11.2017 01:00:00 5,0 4,9 9 5 14 8 WNW 1026,3 3,8 0 0,0
18.11.2017 00:00:00 5,2 5,1 4 2 8 4 WNW 1026,4 0,5 0 0,0
17.11.2017 23:00:00 5,3 5,2 5 3 12 6 NW 1026,6 0,8 0 0,0
17.11.2017 22:00:00 5,4 5,3 9 5 13 7 NW 1027,1 0,8 0 0,0
17.11.2017 21:00:00 5,4 5,3 4 2 12 6 NW 1026,9 1,4 0 0,0
17.11.2017 20:00:00 5,5 5,4 4 2 9 5 - 1026,9 0,9 0 0,0
17.11.2017 19:00:00 5,5 5,4 0 0 6 3 N 1026,7 1,4 0 0,0
17.11.2017 18:00:00 5,6 5,3 5 3 11 6 - 1026,7 2,7 0 0,0
17.11.2017 17:00:00 5,7 5,4 5 3 11 6 NNW 1026,8 3,1 0 0,0
17.11.2017 16:00:00 5,9 5,5 8 4 16 9 N 1027,1 6 0 0,0
17.11.2017 15:00:00 5,9 5,3 11 6 15 8 N 1027,0 6 0 0,0
17.11.2017 14:00:00 5,6 5,2 8 4 11 6 NNW 1027,2 7 0 0,0
17.11.2017 13:00:00 5,0 4,6 4 2 8 4 NNW 1027,5 10 0 0,0
17.11.2017 12:00:00 4,4 4,3 4 2 9 5 - 1027,8 10 0 0,2
17.11.2017 11:00:00 3,7 3,6 2 1 9 5 - 1028,2 8 0 0,0
17.11.2017 10:00:00 3,3 3,2 5 3 11 6 N 1028,2 2,2 6 0,0
17.11.2017 09:00:00 2,8 2,7 4 2 14 8 - 1028,0 0,4 0 0,0
17.11.2017 08:00:00 2,4 2,3 5 3 12 7 - 1027,8 0,6 0 0,0
17.11.2017 07:00:00 2,3 2,2 2 1 4 2 ZZW 1027,5 3,9 0 0,0
17.11.2017 06:00:00 2,3 2,2 2 1 6 3 ZZO 1027,3 5 0 0,0
17.11.2017 05:00:00 2,2 2,1 4 2 5 3 Z 1027,3 4,7 0 0,4
17.11.2017 04:00:00 2,0 1,9 2 1 9 5 N 1027,3 1,0 0 0,0
17.11.2017 03:00:00 1,9 1,8 8 4 16 8 NW 1027,6 1,0 0 0,0
17.11.2017 02:00:00 1,8 1,7 9 5 13 7 Z 1027,1 0,3 0 0,0
17.11.2017 01:00:00 1,6 1,5 8 4 11 6 ZZW 1027,4 2,7 0 0,0
17.11.2017 00:00:00 1,4 1,3 5 3 12 7 ZZW 1027,7 3,0 0 0,0
16.11.2017 23:00:00 1,3 1,2 5 3 10 6 - 1027,7 3,6 0 0,0
16.11.2017 22:00:00 1,6 1,5 5 3 17 9 - 1027,2 3,4 0 0,0
16.11.2017 21:00:00 1,9 1,8 9 5 14 8 Z 1027,0 2,7 0 0,0
16.11.2017 20:00:00 1,9 1,8 0 0 9 5 N 1026,9 2,6 0 0,0
16.11.2017 19:00:00 1,9 1,8 5 3 10 5 - 1026,6 2,6 0 0,0
16.11.2017 18:00:00 1,9 1,8 8 4 11 6 Z 1026,3 4,4 0 0,0
16.11.2017 17:00:00 1,8 1,7 9 5 16 9 ZO 1026,1 5 0 0,0
16.11.2017 16:00:00 2,1 2,1 9 5 14 7 ZO 1025,8 4,3 0 0,0
16.11.2017 15:00:00 2,1 2,1 5 3 16 9 OZO 1025,8 1,8 0 0,0
16.11.2017 14:00:00 1,9 1,9 5 3 15 8 ZO 1026,0 1,9 0 0,0
16.11.2017 13:00:00 1,6 1,6 8 4 15 8 O 1026,0 1,1 0 0,0
16.11.2017 12:00:00 1,5 1,5 11 6 15 8 O 1026,2 0,5 0 0,0
16.11.2017 11:00:00 1,0 1,0 9 5 16 9 ONO 1027,0 0,5 0 0,0
16.11.2017 10:00:00 0,7 0,7 9 5 25 14 O 1026,3 0,5 0 0,0
16.11.2017 09:00:00 0,2 0,2 13 7 24 13 O 1025,9 0,5 0 0,0
16.11.2017 08:00:00 0,1 0,0 15 8 23 12 O 1025,8 0,7 0 0,0

tt = temperatuur
td = dauwpunt
ff = windsnelheid
fx = windstoten
dd = windrichting
ppp = luchtdruk
vv = zicht
sd = Zonneschijnduur
rr = neerslag

Weerstations in de omgeving